Location: Zlin
(49.2330°N, 17.6670°E)
Time: 04:55:55
(UTC+01:00)

DELFI C3 - Visible Passes

Search period start: 28 January 2023 00:00
Search period end: 07 February 2023 00:00
Orbit: 496 x 505 km, 97.3° (Epoch: 27 January)

Date Brightness Start Highest point End Pass type
(mag) Time Alt. Az. Time Alt. Az. Time Alt. Az.
28 Jan ? 18:05:26 10° SSE 18:09:07 78° ENE 18:12:50 10° N visible
29 Jan ? 17:46:10 10° SE 17:49:43 46° ENE 17:53:18 10° N visible
29 Jan ? 19:21:25 10° SW 19:23:44 16° W 19:26:05 10° NW visible
30 Jan ? 06:44:57 10° NNE 06:48:25 35° E 06:51:49 10° SSE visible
30 Jan ? 17:27:05 10° SE 17:30:18 29° ENE 17:33:33 10° N visible
30 Jan ? 19:00:59 10° SSW 19:04:04 25° W 19:07:11 10° NW visible
31 Jan ? 06:25:47 10° NE 06:28:45 22° E 06:31:41 10° SE visible
31 Jan ? 18:40:54 10° S 18:44:24 40° W 18:47:56 10° NNW visible
01 Feb ? 06:06:58 10° ENE 06:08:58 14° E 06:10:59 10° ESE visible
01 Feb ? 18:21:03 10° S 18:24:43 69° WSW 18:28:26 10° NNW visible
02 Feb ? 18:01:22 10° SSE 18:05:03 70° ENE 18:08:45 10° N visible
02 Feb ? 19:38:20 10° WSW 19:39:16 11° W 19:40:12 10° WNW visible
03 Feb ? 17:41:52 10° SE 17:45:21 41° ENE 17:48:53 10° N visible
03 Feb ? 19:16:48 10° SW 19:19:19 17° W 19:21:51 10° NW visible
04 Feb ? 06:40:30 10° NNE 06:43:52 32° E 06:47:10 10° SSE visible
04 Feb ? 17:22:34 10° SE 17:25:40 26° ENE 17:28:48 10° N visible
04 Feb ? 18:56:10 10° SSW 18:59:21 27° W 19:02:35 10° NW visible
05 Feb ? 06:21:07 10° NE 06:23:53 20° E 06:26:38 10° SE visible
05 Feb ? 18:35:52 10° S 18:39:25 45° W 18:43:00 10° NNW visible
06 Feb ? 06:02:13 10° ENE 06:03:48 12° E 06:05:24 10° ESE visible
06 Feb ? 18:15:47 10° S 18:19:28 79° W 18:23:11 10° NNW visible
